Stündliche Wetter Czyczkowy

Heute, 28 Oktober, Mittwoch

Zeit Temperatur Niederschläge Wind Luftdruck Luftfeuchtigkeit
00:00 +7°C° 0 mm 4 m/S 745 mmHg 81%
01:00 +7°C° 0 mm 4 m/S 745 mmHg 82%
02:00 +6°C° 0 mm 4 m/S 745 mmHg 82%
03:00 +6°C° 0 mm 4 m/S 745 mmHg 83%
04:00 +6°C° 0 mm 4 m/S 745 mmHg 83%
05:00 +6°C° 0 mm 4 m/S 745 mmHg 82%
06:00 +6°C° 0 mm 4 m/S 745 mmHg 81%
07:00 +6°C° 0 mm 4 m/S 745 mmHg 80%
08:00 +7°C° 0 mm 5 m/S 745 mmHg 75%
09:00 +8°C° 0 mm 5 m/S 745 mmHg 70%
10:00 +9°C° 0 mm 6 m/S 745 mmHg 65%
11:00 +9°C° 0 mm 6 m/S 745 mmHg 65%
12:00 +9°C° 0 mm 5 m/S 745 mmHg 66%
13:00 +9°C° 0 mm 5 m/S 745 mmHg 67%
14:00 +9°C° 0.1 mm 5 m/S 745 mmHg 71%
15:00 +8°C° 0.1 mm 5 m/S 745 mmHg 75%
16:00 +8°C° 0.1 mm 4 m/S 745 mmHg 79%
17:00 +8°C° 0 mm 4 m/S 745 mmHg 80%
18:00 +8°C° 0 mm 4 m/S 745 mmHg 81%
19:00 +8°C° 0 mm 4 m/S 745 mmHg 82%
20:00 +8°C° 0 mm 4 m/S 745 mmHg 83%
21:00 +8°C° 0 mm 4 m/S 745 mmHg 84%
22:00 +8°C° 0 mm 4 m/S 745 mmHg 86%
23:00 +7°C° 0 mm 4 m/S 745 mmHg 88%

Morgen, 29 Oktober, Donnerstag

Zeit Temperatur Niederschläge Wind Luftdruck Luftfeuchtigkeit
00:00 +7°C° 0 mm 4 m/S 745 mmHg 90%
01:00 +8°C° 0 mm 3 m/S 745 mmHg 92%
02:00 +8°C° 0 mm 3 m/S 745 mmHg 93%
03:00 +7°C° 0 mm 3 m/S 745 mmHg 94%
04:00 +7°C° 0 mm 3 m/S 745 mmHg 95%
05:00 +7°C° 0 mm 3 m/S 745 mmHg 94%
06:00 +7°C° 0 mm 3 m/S 745 mmHg 92%
07:00 +6°C° 0 mm 4 m/S 745 mmHg 91%
08:00 +7°C° 0.1 mm 4 m/S 745 mmHg 88%
09:00 +7°C° 0.1 mm 4 m/S 745 mmHg 85%
10:00 +8°C° 0.1 mm 5 m/S 745 mmHg 83%
11:00 +9°C° 0 mm 5 m/S 745 mmHg 79%
12:00 +9°C° 0 mm 5 m/S 745 mmHg 75%
13:00 +10°C° 0 mm 5 m/S 744 mmHg 70%
14:00 +11°C° 0.2 mm 4 m/S 745 mmHg 72%
15:00 +10°C° 0.2 mm 4 m/S 745 mmHg 74%
16:00 +9°C° 0.2 mm 3 m/S 745 mmHg 76%
17:00 +9°C° 0 mm 3 m/S 746 mmHg 79%
18:00 +8°C° 0 mm 3 m/S 746 mmHg 82%
19:00 +7°C° 0 mm 3 m/S 746 mmHg 85%
20:00 +7°C° 0 mm 3 m/S 747 mmHg 86%
21:00 +6°C° 0 mm 4 m/S 747 mmHg 87%
22:00 +6°C° 0 mm 4 m/S 748 mmHg 87%
23:00 +6°C° 0 mm 4 m/S 748 mmHg 89%

übermorgen, 30 Oktober, Freitag

Zeit Temperatur Niederschläge Wind Luftdruck Luftfeuchtigkeit
00:00 +5°C° 0 mm 4 m/S 748 mmHg 91%
01:00 +5°C° 0 mm 3 m/S 748 mmHg 92%
02:00 +5°C° 0 mm 3 m/S 748 mmHg 93%
03:00 +5°C° 0 mm 3 m/S 749 mmHg 94%
04:00 +5°C° 0 mm 3 m/S 749 mmHg 95%
05:00 +5°C° 0 mm 3 m/S 749 mmHg 94%
06:00 +5°C° 0 mm 3 m/S 749 mmHg 93%
07:00 +5°C° 0 mm 3 m/S 749 mmHg 92%
08:00 +5°C° 0 mm 3 m/S 749 mmHg 88%
09:00 +7°C° 0 mm 3 m/S 749 mmHg 84%
10:00 +7°C° 0 mm 3 m/S 749 mmHg 80%
11:00 +7°C° 0.6 mm 3 m/S 748 mmHg 83%
12:00 +7°C° 0.6 mm 3 m/S 748 mmHg 87%
13:00 +7°C° 0.6 mm 3 m/S 748 mmHg 90%
14:00 +7°C° 1.2 mm 3 m/S 748 mmHg 92%
15:00 +7°C° 1.2 mm 3 m/S 748 mmHg 93%
16:00 +7°C° 1.2 mm 2 m/S 747 mmHg 95%
17:00 +7°C° 0.4 mm 2 m/S 748 mmHg 95%
18:00 +7°C° 0.4 mm 2 m/S 748 mmHg 96%
19:00 +7°C° 0.4 mm 2 m/S 748 mmHg 96%
20:00 +7°C° 0 mm 2 m/S 749 mmHg 96%
21:00 +7°C° 0 mm 2 m/S 749 mmHg 95%
22:00 +7°C° 0 mm 2 m/S 750 mmHg 95%
23:00 +7°C° 0 mm 2 m/S 750 mmHg 95%

31 Oktober, Samstag

Zeit Temperatur Niederschläge Wind Luftdruck Luftfeuchtigkeit
00:00 +8°C° 0 mm 1 m/S 751 mmHg 95%
01:00 +7°C° 0 mm 1 m/S 751 mmHg 95%
02:00 +7°C° 0 mm 1 m/S 752 mmHg 96%
03:00 +7°C° 0 mm 1 m/S 752 mmHg 96%
04:00 +5°C° 0 mm 2 m/S 753 mmHg 97%
05:00 +5°C° 0 mm 2 m/S 753 mmHg 97%
06:00 +5°C° 0 mm 2 m/S 753 mmHg 97%
07:00 +5°C° 0 mm 2 m/S 754 mmHg 97%
08:00 +5°C° 0 mm 3 m/S 754 mmHg 92%
09:00 +7°C° 0 mm 3 m/S 754 mmHg 88%
10:00 +8°C° 0 mm 3 m/S 755 mmHg 84%
11:00 +9°C° 0 mm 3 m/S 755 mmHg 81%
12:00 +9°C° 0 mm 3 m/S 755 mmHg 78%
13:00 +10°C° 0 mm 3 m/S 755 mmHg 75%
14:00 +10°C° 0 mm 3 m/S 755 mmHg 78%
15:00 +10°C° 0 mm 3 m/S 755 mmHg 80%
16:00 +9°C° 0 mm 3 m/S 755 mmHg 82%
17:00 +9°C° 0 mm 3 m/S 755 mmHg 82%
18:00 +9°C° 0 mm 3 m/S 755 mmHg 83%
19:00 +9°C° 0 mm 3 m/S 755 mmHg 84%
20:00 +9°C° 0 mm 3 m/S 755 mmHg 84%
21:00 +8°C° 0 mm 3 m/S 755 mmHg 84%
22:00 +8°C° 0 mm 3 m/S 755 mmHg 85%
23:00 +8°C° 0 mm 3 m/S 755 mmHg 85%

1 November, Sonntag

Zeit Temperatur Niederschläge Wind Luftdruck Luftfeuchtigkeit
00:00 +6°C° 0 mm 4 m/S 755 mmHg 86%
01:00 +6°C° 0 mm 4 m/S 754 mmHg 86%
02:00 +6°C° 0 mm 4 m/S 754 mmHg 85%
03:00 +6°C° 0 mm 4 m/S 754 mmHg 83%
04:00 +6°C° 0 mm 4 m/S 753 mmHg 82%
05:00 +5°C° 0 mm 4 m/S 753 mmHg 81%
06:00 +5°C° 0 mm 5 m/S 753 mmHg 80%
07:00 +5°C° 0 mm 5 m/S 752 mmHg 79%
08:00 +6°C° 0 mm 5 m/S 752 mmHg 76%
09:00 +7°C° 0 mm 5 m/S 752 mmHg 73%
10:00 +7°C° 0 mm 5 m/S 752 mmHg 70%
11:00 +8°C° 0 mm 5 m/S 751 mmHg 70%
12:00 +9°C° 0 mm 5 m/S 751 mmHg 71%
13:00 +10°C° 0 mm 6 m/S 751 mmHg 71%
14:00 +10°C° 0 mm 5 m/S 750 mmHg 75%
15:00 +10°C° 0 mm 5 m/S 750 mmHg 78%
16:00 +10°C° 0 mm 5 m/S 750 mmHg 82%
17:00 +10°C° 0 mm 5 m/S 750 mmHg 84%
18:00 +9°C° 0 mm 5 m/S 749 mmHg 86%
19:00 +9°C° 0 mm 5 m/S 749 mmHg 88%
20:00 +9°C° 0 mm 5 m/S 749 mmHg 89%
21:00 +9°C° 0 mm 5 m/S 749 mmHg 90%
22:00 +9°C° 0 mm 5 m/S 749 mmHg 91%
23:00 +9°C° 0 mm 5 m/S 749 mmHg 91%

2 November, Montag

Zeit Temperatur Niederschläge Wind Luftdruck Luftfeuchtigkeit
00:00 +9°C° 0 mm 5 m/S 749 mmHg 91%
01:00 +9°C° 0 mm 5 m/S 749 mmHg 90%
02:00 +9°C° 0 mm 5 m/S 748 mmHg 90%
03:00 +9°C° 0 mm 5 m/S 748 mmHg 89%
04:00 +9°C° 0 mm 5 m/S 748 mmHg 89%
05:00 +9°C° 0 mm 5 m/S 748 mmHg 88%
06:00 +9°C° 0 mm 5 m/S 748 mmHg 88%
07:00 +9°C° 0 mm 5 m/S 748 mmHg 87%
08:00 +10°C° 0 mm 5 m/S 748 mmHg 84%
09:00 +12°C° 0 mm 5 m/S 748 mmHg 81%
10:00 +13°C° 0 mm 5 m/S 749 mmHg 77%
11:00 +14°C° 0 mm 5 m/S 749 mmHg 75%
12:00 +14°C° 0 mm 5 m/S 749 mmHg 74%
13:00 +15°C° 0 mm 5 m/S 749 mmHg 72%
14:00 +14°C° 0 mm 5 m/S 749 mmHg 74%
15:00 +14°C° 0 mm 4 m/S 749 mmHg 76%
16:00 +14°C° 0 mm 4 m/S 749 mmHg 78%
17:00 +14°C° 0 mm 4 m/S 749 mmHg 80%
18:00 +13°C° 0 mm 4 m/S 749 mmHg 82%
19:00 +13°C° 0 mm 4 m/S 749 mmHg 84%
20:00 +13°C° 0 mm 4 m/S 750 mmHg 84%
21:00 +13°C° 0 mm 4 m/S 750 mmHg 84%
22:00 +12°C° 0 mm 3 m/S 750 mmHg 84%
23:00 +12°C° 0 mm 3 m/S 750 mmHg 83%
Mehr zeigen

Wir brauchen deine Erlaubnis

Meteoprog und unser Service Anbieter werden persönliche Daten aufbewahren, so wie Cookies, Geräte Bezeichnung oder ähnliche Technologien von deinem Gerät und Prozess, so wie Persönliche Daten Inhalte und Werbungen, genauso wie social Media und den Verkehr zu analysieren.

  • Aufbewahrung und/oder Zugang zu deiner Geräte Informationen.

    Cookies, Geräte Bezeichnung oder andere Informationen, können aufbewahrt oder Zugang zu deinem Gerät erhalten, für den Grund, der oben angegeben wird.

  • Personalisierte Werbung und Inhalte, Messungen, Einblick in das Publikum und Produkt Entwicklung.

    Werbungen und Inhalte können personalisiert werden, basierend auf ein Profil. Mehr Daten können besser personalisierte Werbungen und Inhalte hinzufügen. Werbung und Inhalte können gezeigt und gemessen werden. Einblicke über das Publikum, welche die Werbung gesehen haben und den Inhalt, können abgeleitet werden. So wie Daten können genutzt werden, um es zu verbessern oder die Benutzer Erfahrung zu verbessern das System und die Software.

Wenn du “Ich stimme zu” klickst, erlaubst du uns, die Cookies zu benutzen die Geräte Bezeichnung, den Web oder ähnliche Technologien zu benutzen. Deine Settings, können in deinem Gerät bei deinem Browser geändert werden.

Für den bestimmten Zweck, berechtigten Interessen beruhen darauf, mehr als auf den Inhalt. Du kannst mehr darüber in unseren Privaten und Cookie Politik lesen.